串田彗星

144P/Kushida (2009)

English version
Home page
Updated on March 17, 2010

---------------------------------------------------------------------

・ プロフィール

・ 写真集

・ 軌道要素

Epoch 2009 Jan. 9.0 TT = JDT 2454840.5
T 2009 Jan. 26.85516 TT                                 MPC
q   1.4389476            (2000.0)            P               Q
n   0.12964580     Peri.  216.09374     -0.20071096     -0.97747582
a   3.8663136      Node   245.56545     +0.91476860     -0.16316963
e   0.6278244      Incl.    4.10917     +0.35059025     -0.13385329
P   7.60

・ 星図

・ 光度変化

        m1 = -0.5 + 5 logΔ + 65   log r  [ ,0]  (              〜2009年 1月26日)
        m1 =  5.8 + 5 logΔ + 25.0 log r  [0, ]  (2009年 1月26日〜              )

---------------------------------------------------------------------

軌道要素はM.P.E.C. 2008-N20に掲載されたものです。
星図は StellaNavigator Ver.2.0 for Windows (アストロアーツ編著 / アスキー出版局刊) で作成したものです。
光度グラフはComet for Windowsで作成したものです。

---------------------------------------------------------------------

Copyright(C) Seiichi Yoshida (comet@aerith.net). All rights reserved.